Location: Bennemühlen
(52.5740°N, 9.7135°E)
Time: 06:59:51
(UTC+00:00)

Cosmos 2333 Rocket - Pass Details

Date: 19 May 2025
Orbit: 840 x 862 km, 70.8° (Epoch: 22 June)

Event Time Altitude Azimuth Distance (km) Brightness Sun altitude
Rises 20:18:42 0° 324° (NW) 3,446 7.8 -7.7°
Reaches altitude 10° 20:21:57 10° 342° (NNW) 2,504 5.9 -8.1°
Maximum altitude 20:25:59 19° 27° (NNE) 1,931 4.4 -8.5°
Drops below altitude 10° 20:29:59 10° 72° (ENE) 2,488 4.4 -8.9°
Sets 20:33:11 0° 90° (E) 3,417 5.0 -9.2°
